Flag for Australia Weather past 2 weeks in Eucla, Western Australia, Australia

Now
62 °F

Overcast.


Feels Like: 62 °F
Forecast: 62 / 73 °F
Wind: 15 mph from Northeast

Location: Eucla Amo

Current Time: Oct 23, 2014 at 11:27:21 AM

Latest Report: Oct 23, 2014 at 9:45 AM


Visibility: 25 mi

Pressure: 30.00 "Hg

Humidity: 71%

Dew point: 53 °F

Location of EuclaLocation

Historic Weather in Eucla — Graph

°F

Eucla temperature yesterday

Maximum temperature yesterday: 66 °F (at 12:45 PM)
Minimum temperature yesterday: 58 °F (at 12:45 AM)
Average temperature yesterday: 61 °F

Past Weeks' High & Low Weather Summary

 TemperatureHumidityPressure
High101 °F (Oct 17, 12:45 PM)97% (Oct 22, 2:45 AM)30.40 "Hg (Oct 22, 2:45 AM)
Low44 °F (Oct 14, 5:45 AM)5% (Oct 17, 11:45 AM)29.78 "Hg (Oct 9, 11:45 AM)
Average63 °F65%30.09 "Hg
* Reported Oct 8 9:45 AM — Oct 23 9:45 AM, Eucla, Weather by CustomWeather, © 2014

Note: Actual official high and low records may vary slightly from our data, if they occured in-between our weather recording intervals... More about our weather records

Advertising

Eucla weather history for previous 24 hours

 ConditionsComfort  
Time TempWeatherWind HumidityBarometerVisibility
9:45 AM
Oct 23
62 °FOvercast.15 mph71%30.00 "Hg25 mi
8:45 AM61 °FCool.14 mph76%30.02 "HgN/A
6:45 AM58 °FCool.7 mph87%30.02 "HgN/A
5:45 AM57 °FCool.8 mph89%30.00 "HgN/A
3:45 AM58 °FCool.8 mph88%30.01 "HgN/A
2:45 AM58 °FCool.10 mph88%30.03 "HgN/A
12:45 AM59 °FCool.9 mph88%30.08 "HgN/A
11:45 PM
Oct 22
60 °FCool.10 mph86%30.11 "HgN/A
9:45 PM60 °FCool.9 mph84%30.14 "HgN/A
8:45 PM60 °FCool.9 mph81%30.16 "HgN/A
6:45 PM61 °FCool.9 mph80%30.15 "HgN/A
5:45 PM62 °FCool.9 mph77%30.16 "HgN/A
3:45 PM64 °FMild.10 mph74%30.17 "HgN/A
2:45 PM65 °FMild.10 mph68%30.17 "HgN/A
12:45 PM66 °FMild.9 mph67%30.21 "HgN/A
11:45 AM65 °FMild.8 mph70%30.23 "HgN/A
Weather by CustomWeather, © 2014

See weather overviewHow to use our weather pages